Location: Limoges
(45.8354°N, 1.2645°E)
Time: 11:45:22
(UTC+01:00)

Courier 1B Rocket - Visible Passes

Search period start: 22 February 2024 00:00
Search period end: 03 March 2024 00:00
Orbit: 920 x 1202 km, 28.2° (Epoch: 21 February)

Date Brightness Start Highest point End Pass type
(mag) Time Alt. Az. Time Alt. Az. Time Alt. Az.
22 Feb 7.1 05:02:24 12° S 05:02:45 12° SSE 05:04:48 10° SE visible
22 Feb 7.0 06:51:19 10° SW 06:54:53 16° S 06:58:31 10° SE visible
23 Feb 6.9 05:51:27 12° SSW 05:54:09 15° S 05:57:33 10° SE visible
24 Feb 7.0 04:54:07 13° SSE 04:54:07 13° SSE 04:56:22 10° SE visible
24 Feb 6.9 06:42:20 10° SW 06:45:36 15° S 06:48:56 10° SSE visible
25 Feb 6.7 05:43:08 13° SSW 05:44:53 15° S 05:48:17 10° SSE visible
26 Feb 7.0 04:45:47 13° SSE 04:45:47 13° SSE 04:47:28 10° SE visible
26 Feb 6.9 06:33:41 10° SW 06:36:19 13° S 06:38:59 10° SSE visible
27 Feb 6.7 05:34:48 14° SSW 05:35:37 14° S 05:38:46 10° SSE visible
28 Feb 7.1 04:37:29 12° SSE 04:37:29 12° SSE 04:38:16 10° SSE visible
28 Feb 7.0 06:25:59 10° SSW 06:27:01 10° SSW 06:28:03 10° S visible
29 Feb 6.8 05:26:32 13° S 05:26:32 13° S 05:28:52 10° SSE visible
